Погода в Кербеле

Ирак     32°36′10″N   44°02′14″E
темп.,
°C
ветер,
м/с
пор.,
м/с
влажн.,
%
обл.,
%
осадки,
мм/ч
давл.,
гПа
погр.,
м
11 мая, вт
вт1100:00+33св571854 0.0 1004126
03:00+31ююз342197 0.0 100440
06:00+29зсз332898 0.0 100664
09:00+33ссз3320100 0.0 1007453
12:00+38зсз111384 0.0 10061481
15:00+39сз6411100 0.0 10041743
18:00+38юз3511100 0.0 1003317
21:00+29з67340 0.1 1006232
12 мая, ср
ср1200:00+30в35266 0.0 100468
03:00+28юз22297 0.0 100424
06:00+28зсз443271 0.0 100774
09:00+33в2321100 0.0 1006362
12:00+37юв12133 0.0 10051478
15:00+39сз24110 0.0 10033016
18:00+37ююв55150 0.0 1003493
21:00+33вюв571777 0.0 1004155
13 мая, чт
чт1300:00+31сз23200 0.0 100337
03:00+30всв45200 0.0 100352
06:00+29сз23260 0.0 100529
09:00+35зсз11170 0.0 1005442
12:00+39сз32120 0.0 10041401
15:00+41сз54100 0.0 10032417
18:00+40с4590 0.0 1002396
21:00+37ссв4496 0.0 100253
14 мая, пт
пт1400:00+34с46101 0.0 100383
03:00+31сз45190 0.0 100388
06:00+29ссз46230 0.0 100597
09:00+35сз55143 0.0 1005500
12:00+40сз65100 0.0 10051172
15:00+41сз7680 0.0 10032986
18:00+38сз58100 0.0 1003499
21:00+34ссз58160 0.0 1004209
15 мая, сб
сб1500:00+32ссз816180 0.0 1004411
03:00+30ссз815220 0.0 1004316
06:00+29сз613260 0.0 1005276
09:00+34сз911120 0.0 1006826
12:00+38сз9990 0.0 10051511
15:00+39сз9960 0.0 10042320
18:00+36сз710110 0.0 1003650
21:00+32зсз712160 0.0 1004213